Location: Congrier
(47.8099°N, 1.1170°W)
Time: 16:06:09
(UTC+00:00)

CZ-4B R/B - Pass Details

Date: 28 January 2023
Orbit: 809 x 881 km, 99.0° (Epoch: 25 March)

Event Time Altitude Azimuth Distance (km) Brightness Sun altitude
Rises 19:09:51 0° 171° (S) 3,319 6.2 -22.0°
Reaches altitude 10° 19:12:11 10° 174° (S) 2,397 5.5 -22.4°
Maximum altitude 19:17:27 67° 257° (WSW) 890 3.4 -23.3°
Drops below altitude 10° 19:22:51 10° 340° (NNW) 2,450 5.8 -24.2°
Sets 19:25:15 0° 343° (NNW) 3,399 6.6 -24.6°
